User: anonymous   Login
Location: Bonn
(50.7330°N, 7.1000°E)
Time: 05:29:39
(UTC+02:00)
Language:

Iridium 84 - Orbit

View from above orbital plane
View from above orbital plane
View from above satellite
View from above satellite

Ground track
Ground track

The orbit data is extracted from the following two-line orbital elements,

1 25530U 98066D   15208.29707309  .00000201  00000-0  64873-4 0  9992
2 25530 086.3956 278.7756 0002276 095.0804 265.0651 14.34215524877973
Epoch (UTC): 27 July 2015 07:07:47
Eccentricity: 0.0002276
inclination: 86.3956°
perigee height: 776 km
apogee height: 779 km
right ascension of ascending node: 278.7756°
argument of perigee: 95.0804°
revolutions per day: 14.34215524
mean anomaly at epoch: 265.0651°
orbit number at epoch: 87797

The dashed part of the orbit path shows where the satellite is in the earth's shadow,  

DLR